EW4944 Weather Reports


Display with metric or nautical units.
time (UTC)temp
F
wind
direction
speed
MPH
gust
MPH
rain 1hr
in
rain 24hr
in
rain mn
in
humidity
%
barometer
mb
20260504110557 46 288 2.0 7.0 0.00 0.00 0.00 71 1012.8
20260504100557 41 0.0 0.0 0.00 0.00 0.00 77 1012.4
20260504081609 41 0.0 0.0 0.00 0.00 0.00 74 1011.9
20260504081059 41 0.0 0.0 0.00 0.00 0.00 75 1011.8
20260504080557 41 0.0 0.0 0.00 0.00 0.00 75 1011.8
20260504050553 41 0.0 0.0 0.00 0.00 0.00 72 1011.3
20260504045556 41 0.0 0.0 0.00 0.00 0.00 70 1011.5
20260504045053 41 0.0 0.0 0.00 0.00 0.00 70 1011.4
20260504044559 41 0.0 0.0 0.00 0.00 0.00 70 1011.4
20260504044053 41 0.0 0.0 0.00 0.00 0.00 69 1011.4
20260504043553 42 0.0 0.0 0.00 0.00 0.00 69 1011.3
20260504043058 42 0.0 0.0 0.00 0.00 0.00 69 1011.4
20260504042557 42 0.0 0.0 0.00 0.00 0.00 68 1011.4
20260504042100 42 0.0 0.0 0.00 0.00 0.00 67 1011.4
20260504041558 42 0.0 0.0 0.00 0.00 0.00 67 1011.3
20260504041056 42 0.0 0.0 0.00 0.00 0.00 67 1011.3
20260504040557 42 0.0 0.0 0.00 0.00 0.00 69 1011.3
20260504040105 42 0.0 0.0 0.00 0.00 0.00 68 1011.3
20260504035556 42 0.0 0.0 0.00 0.00 0.00 67 1011.2
20260504035056 43 0.0 0.0 0.00 0.00 0.00 66 1011.2
20260504034601 43 0.0 0.0 0.00 0.00 0.00 65 1011.2
20260504034055 43 0.0 0.0 0.00 0.00 0.00 65 1011.3
20260504033555 43 0.0 0.0 0.00 0.00 0.00 65 1011.1
20260504033126 43 0.0 0.0 0.00 0.00 0.00 65 1011.2
20260504032554 44 0.0 0.0 0.00 0.00 0.00 63 1011.1
20260504032056 44 0.0 0.0 0.00 0.00 0.00 62 1010.9
20260504031601 44 0.0 0.0 0.00 0.00 0.00 62 1010.9
20260504031053 44 0.0 0.0 0.00 0.00 0.00 63 1011.0
20260504030556 44 0.0 0.0 0.00 0.00 0.00 64 1011.0
20260504030104 44 0.0 0.0 0.00 0.00 0.00 63 1010.9
20260504025556 45 0.0 0.0 0.00 0.00 0.00 61 1011.0
20260504025057 45 0.0 0.0 0.00 0.00 0.00 57 1011.0
20260504024556 45 0.0 0.0 0.00 0.00 0.00 58 1011.1
20260504024057 45 0.0 0.0 0.00 0.00 0.00 59 1011.1
20260504023556 45 0.0 0.0 0.00 0.00 0.00 58 1011.1
20260504023104 45 0.0 0.0 0.00 0.00 0.00 56 1011.1
20260504022558 45 0.0 0.0 0.00 0.00 0.00 58 1011.1
20260504022053 46 0.0 0.0 0.00 0.00 0.00 54 1011.2
20260504021556 46 0.0 0.0 0.00 0.00 0.00 55 1011.1
20260504021053 46 0.0 0.0 0.00 0.00 0.00 54 1011.1
20260504020553 46 0.0 0.0 0.00 0.00 0.00 55 1011.0
20260504015553 47 0.0 0.0 0.00 0.00 0.00 52 1011.1
20260504015054 47 0.0 0.0 0.00 0.00 0.00 52 1011.0
20260504014555 47 0.0 0.0 0.00 0.00 0.00 53 1011.1
20260504014053 47 0.0 0.0 0.00 0.00 0.00 56 1011.1
20260504013553 47 0.0 0.0 0.00 0.00 0.00 58 1011.0
20260504013109 47 0.0 0.0 0.00 0.00 0.00 56 1010.9
20260504012553 47 0.0 0.0 0.00 0.00 0.00 58 1010.9
20260504012053 48 0.0 0.0 0.00 0.00 0.00 55 1010.7
20260504011557 48 0.0 0.0 0.00 0.00 0.00 53 1010.7
20260504011058 48 0.0 0.0 0.00 0.00 0.00 56 1010.7
20260504010558 48 0.0 0.0 0.00 0.00 0.00 54 1010.6
20260504010113 49 0.0 0.0 0.00 0.00 0.00 52 1010.5
20260504005601 49 0.0 0.0 0.00 0.00 0.00 54 1010.4
20260504005059 49 0.0 0.0 0.00 0.00 0.00 52 1010.4
20260504004624 49 0.0 0.0 0.00 0.00 0.00 50 1010.3
20260504004059 49 0.0 0.0 0.00 0.00 0.00 53 1010.2
20260504003601 49 0.0 0.0 0.00 0.00 0.00 53 1010.2
20260504003057 49 0.0 0.0 0.00 0.00 0.00 51 1010.2
20260504002558 49 0.0 0.0 0.00 0.00 0.00 52 1010.1
20260504002058 49 0.0 0.0 0.00 0.00 0.00 55 1010.1
20260504001612 49 0.0 0.0 0.00 0.00 0.00 53 1010.0
20260504001058 50 0.0 0.0 0.00 0.00 0.00 50 1009.9
20260504000558 50 0.0 0.0 0.00 0.00 0.00 48 1009.9
20260504000058 50 0.0 0.0 0.00 0.00 0.00 47 1009.9
20260503235558 50 0.0 0.0 0.00 0.00 0.00 46 1009.8
20260503235058 51 0.0 0.0 0.00 0.00 0.00 46 1009.6
20260503234556 51 0.0 0.0 0.00 0.00 0.00 45 1009.6
20260503234058 52 0.0 0.0 0.00 0.00 0.00 42 1009.6
20260503233558 52 1.0 2.0 0.00 0.00 0.00 43 1009.5
20260503233059 53 1.0 3.0 0.00 0.00 0.00 42 1009.5
20260503232557 53 294 1.0 4.0 0.00 0.00 0.00 42 1009.4
20260503232057 53 294 1.0 6.0 0.00 0.00 0.00 41 1009.3
20260503231559 54 284 2.0 7.0 0.00 0.00 0.00 41 1009.3
20260503231059 54 292 3.0 8.0 0.00 0.00 0.00 43 1009.2
20260503230559 54 297 2.0 8.0 0.00 0.00 0.00 42 1009.3
20260503230103 55 321 3.0 7.0 0.00 0.00 0.00 40 1009.2
20260503225601 55 296 2.0 7.0 0.00 0.00 0.00 40 1009.1
20260503225058 55 16 1.0 9.0 0.00 0.00 0.00 40 1009.0
20260503224556 55 338 2.0 11.0 0.00 0.00 0.00 39 1009.0
20260503224058 55 298 4.0 11.0 0.00 0.00 0.00 39 1009.0
20260503223558 55 272 5.0 13.0 0.00 0.00 0.00 39 1008.8
20260503223100 55 316 5.0 13.0 0.00 0.00 0.00 41 1009.0
20260503222557 56 295 6.0 12.0 0.00 0.00 0.00 40 1009.0
20260503222057 56 233 6.0 14.0 0.00 0.00 0.00 39 1008.9
20260503221559 56 302 6.0 17.0 0.00 0.00 0.00 39 1008.9
20260503221058 56 282 8.0 17.0 0.00 0.00 0.00 39 1008.8
20260503220558 56 333 6.0 16.0 0.00 0.00 0.00 36 1008.8
20260503220057 56 285 8.0 16.0 0.00 0.00 0.00 37 1008.8
20260503215554 56 267 5.0 17.0 0.00 0.00 0.00 39 1008.9
20260503215057 56 22 5.0 18.0 0.00 0.00 0.00 40 1009.0
20260503214600 56 280 6.0 18.0 0.00 0.00 0.00 38 1008.9
20260503214101 56 289 9.0 18.0 0.00 0.00 0.00 39 1008.9
20260503213558 56 298 6.0 17.0 0.00 0.00 0.00 40 1008.8
20260503213107 56 301 8.0 23.0 0.00 0.00 0.00 39 1008.8
20260503212558 56 280 8.0 23.0 0.00 0.00 0.00 39 1008.7
20260503212059 56 296 8.0 24.0 0.00 0.00 0.00 39 1008.8
20260503211557 56 303 11.0 24.0 0.00 0.00 0.00 40 1008.7
20260503211056 56 294 6.0 16.0 0.00 0.00 0.00 41 1008.7
20260503210600 57 326 7.0 16.0 0.00 0.00 0.00 39 1008.8
20260503210104 56 309 4.0 16.0 0.00 0.00 0.00 43 1008.8
20260503205558 56 325 7.0 16.0 0.00 0.00 0.00 43 1008.8
20260503205059 56 290 3.0 14.0 0.00 0.00 0.00 43 1008.7
20260503204609 57 330 6.0 13.0 0.00 0.00 0.00 42 1008.8
20260503204054 57 311 5.0 14.0 0.00 0.00 0.00 39 1008.8
20260503203600 58 312 6.0 15.0 0.00 0.00 0.00 39 1008.8
20260503203106 57 274 6.0 20.0 0.00 0.00 0.00 41 1008.7
20260503202556 57 286 6.0 25.0 0.00 0.00 0.00 39 1008.8
20260503202058 57 45 10.0 25.0 0.00 0.00 0.00 42 1008.8
20260503201558 58 242 6.0 15.0 0.00 0.00 0.00 40 1008.8
20260503201058 57 288 8.0 15.0 0.00 0.00 0.00 39 1008.8
20260503200558 58 340 6.0 16.0 0.00 0.00 0.00 39 1009.0
20260503200101 58 308 7.0 16.0 0.00 0.00 0.00 38 1008.9
20260503195559 59 275 9.0 16.0 0.00 0.00 0.00 43 1008.9
20260503195058 59 315 6.0 18.0 0.00 0.00 0.00 41 1008.9
20260503194558 58 291 5.0 21.0 0.00 0.00 0.00 40 1009.0
20260503194055 58 300 10.0 21.0 0.00 0.00 0.00 40 1008.9
20260503193558 57 281 6.0 17.0 0.00 0.00 0.00 45 1009.0
20260503193102 56 295 9.0 24.0 0.00 0.00 0.00 43 1009.1
20260503192558 56 281 9.0 24.0 0.00 0.00 0.00 41 1009.1
20260503192058 57 296 8.0 17.0 0.00 0.00 0.00 42 1009.0
20260503191620 58 283 6.0 12.0 0.00 0.00 0.00 41 1009.0
20260503191056 58 290 5.0 13.0 0.00 0.00 0.00 39 1008.9
20260503190556 59 327 6.0 14.0 0.00 0.00 0.00 40 1009.1
20260503190059 59 324 5.0 17.0 0.00 0.00 0.00 42 1008.9
20260503185559 57 287 7.0 17.0 0.00 0.00 0.00 41 1008.8
20260503185057 57 283 6.0 15.0 0.00 0.00 0.00 41 1009.0
20260503184601 57 318 7.0 19.0 0.00 0.00 0.00 43 1008.9
20260503184103 58 288 8.0 19.0 0.00 0.00 0.00 39 1008.8
20260503183556 58 281 8.0 16.0 0.00 0.00 0.00 43 1008.9
20260503183114 57 295 5.0 17.0 0.00 0.00 0.00 42 1008.7
20260503182556 58 296 8.0 17.0 0.00 0.00 0.00 41 1008.9
20260503182056 58 298 5.0 15.0 0.00 0.00 0.00 43 1008.7
20260503181601 57 285 6.0 15.0 0.00 0.00 0.00 40 1008.8
20260503181056 58 265 6.0 15.0 0.00 0.00 0.00 42 1008.9
20260503180559 58 292 6.0 22.0 0.00 0.00 0.00 39 1008.9
20260503180059 59 313 8.0 22.0 0.00 0.00 0.00 43 1008.8
20260503175555 58 288 9.0 22.0 0.00 0.00 0.00 44 1008.8
20260503175056 57 290 7.0 17.0 0.00 0.00 0.00 48 1008.8
20260503174557 55 261 4.0 11.0 0.00 0.00 0.00 43 1008.8
20260503174056 55 286 5.0 11.0 0.00 0.00 0.00 44 1008.8
20260503173556 54 286 2.0 15.0 0.00 0.00 0.00 44 1009.0
20260503173118 55 270 6.0 15.0 0.00 0.00 0.00 44 1009.0
20260503172601 55 270 7.0 15.0 0.00 0.00 0.00 46 1009.1
20260503172055 55 243 5.0 15.0 0.00 0.00 0.00 49 1009.1
20260503171558 52 350 6.0 15.0 0.00 0.00 0.00 48 1009.2
20260503171057 53 304 3.0 15.0 0.00 0.00 0.00 50 1009.2
20260503170556 53 315 4.0 17.0 0.00 0.00 0.00 45 1009.2
20260503150558 56 291 9.0 25.0 0.00 0.00 0.00 53 1009.4
20260503140107 53 58 7.0 22.0 0.00 0.00 0.00 56 1009.2
20260503131055 50 325 6.0 18.0 0.00 0.00 0.00 60 1009.3
20260503130555 50 301 6.0 18.0 0.00 0.00 0.00 62 1009.4